Location: Unspecified
(0.0000°N, 0.0000°E)
Time: 13:04:18
(UTC+00:00)

Hubble Space Telescope - Pass Details

Date: 16 May 2026
Orbit: 473 x 476 km, 28.5° (Epoch: 18 May)

Event Time Altitude Azimuth Distance (km) Brightness Sun altitude
Exits shadow 04:38:51 47° 278° (W) 628 0.7 -18.3°
Maximum altitude 04:39:37 60° 330° (NNW) 538 0.6 -18.1°
Drops below altitude 10° 04:43:19 10° 50° (NE) 1,623 4.3 -17.2°
Sets 04:45:31 0° 54° (NE) 2,497 5.7 -16.7°
